Weather in Trusovo

Russia / Komi Republic     65°27′35″N   51°22′37″E
temp.,
°C
wind,
m/s
gust,
m/s
humid.,
%
clouds,
%
prec.,
mm/h
press.,
hPa
HPBL,
m
23 january, sat
sat2300:00−30ese1298100 0.0 102821
03:00−29e2298100 0.0 102873
06:00−25ese2596100 0.0 1027173
09:00−27e2598100 0.0 1027136
12:00−24ese3792100 0.0 1027285
15:00−25ese3994100 0.0 1026260
18:00−25ese4994100 0.0 1024301
21:00−23ese41092100 0.0 1022395
24 january, sun
sun2400:00−21ese51289100 0.0 1019502
03:00−25ese4119499 0.0 1023350
06:00−19se51096100 1.8 1015727
09:00−19sse3894100 2.1 1015594
12:00−19sse3794100 0.1 1014438
15:00−19se3797100 0.3 1015335
18:00−17se3796100 0.3 1014330
21:00−15sse3696100 1.0 1014300
25 january, mon
mon2500:00−14se2596100 0.6 1013200
03:00−12se2596100 1.1 1013181
06:00−10se3695100 0.8 1011235
09:00−15se3795100 0.1 1019275
12:00−13se3794100 0.1 1018304
15:00−3ese1299100 2.1 101070
18:00+1sw3999100 1.0 1009365
21:00+1sw41099100 1.1 1008456
26 january, tue
tue2600:00+1ssw2699100 0.1 1008199
03:00+1sw3799100 0.9 1008220
06:00+1wsw31099100 1.3 1006334
09:00+1wsw3899100 2.0 1009278
12:00+1wsw41198100 0.2 1008472
15:00−1nnw2699100 1.2 1011302
18:00−14ne3596100 0.4 1014186
21:00−16ne3696100 1.8 1015252
27 january, wed
wed2700:00−18ne3696100 0.4 1017279
03:00−18ene3696100 0.8 1018315
06:00−25e369298 0.0 1024241
09:00−21e3798100 0.9 1018284
12:00−21e3798100 0.8 1017264
15:00−25ese369287 0.0 1024221
18:00−20e3698100 0.7 1014242
21:00−19e3697100 1.5 1012211